TimeEST,TemperatureF,Dew PointF,Humidity,Sea Level PressureIn,VisibilityMPH,Wind Direction,Wind SpeedMPH,Gust SpeedMPH,PrecipitationIn,Events,Conditions,WindDirDegrees,DateUTC
12:17 AM,23.0,18.3,82,30.15,10.0,North,9.2,-,N/A,,Overcast,10,2012-12-27 05:17:00
12:37 AM,23.5,17.4,77,30.15,10.0,North,10.4,-,N/A,,Overcast,10,2012-12-27 05:37:00
12:57 AM,23.4,17.6,79,30.15,10.0,North,13.8,-,N/A,,Overcast,360,2012-12-27 05:57:00
1:16 AM,23.2,18.1,81,30.15,10.0,North,11.5,-,N/A,,Overcast,10,2012-12-27 06:16:00
1:37 AM,23.4,18.1,80,30.14,10.0,NNE,11.5,-,N/A,,Overcast,20,2012-12-27 06:37:00
1:57 AM,23.0,16.5,76,30.14,10.0,NNE,11.5,-,N/A,,Overcast,20,2012-12-27 06:57:00
2:16 AM,23.0,16.7,77,30.15,10.0,North,12.7,-,N/A,,Overcast,360,2012-12-27 07:16:00
2:37 AM,23.0,17.6,80,30.15,10.0,NNE,11.5,-,N/A,,Overcast,20,2012-12-27 07:37:00
2:56 AM,23.0,17.4,79,30.15,10.0,North,13.8,-,N/A,,Overcast,10,2012-12-27 07:56:00
3:17 AM,22.8,17.2,79,30.16,10.0,North,13.8,-,N/A,,Overcast,10,2012-12-27 08:17:00
3:36 AM,22.8,17.2,79,30.16,10.0,North,9.2,12.7,N/A,,Overcast,360,2012-12-27 08:36:00
3:57 AM,22.6,17.4,80,30.16,10.0,North,13.8,17.3,N/A,,Overcast,360,2012-12-27 08:57:00
4:17 AM,22.6,17.6,81,30.16,10.0,North,11.5,-,N/A,,Overcast,10,2012-12-27 09:17:00
4:36 AM,22.6,17.6,81,30.16,10.0,NNE,11.5,-,N/A,,Overcast,20,2012-12-27 09:36:00
4:57 AM,22.6,17.6,81,30.16,10.0,North,12.7,-,N/A,,Overcast,360,2012-12-27 09:57:00
5:17 AM,22.6,18.0,82,30.15,10.0,North,12.7,-,N/A,,Overcast,10,2012-12-27 10:17:00
5:37 AM,22.5,17.8,82,30.15,10.0,North,15.0,-,N/A,,Overcast,10,2012-12-27 10:37:00
5:57 AM,22.5,18.0,83,30.15,10.0,North,17.3,23.0,N/A,,Overcast,360,2012-12-27 10:57:00
6:50 AM,21.2,17.6,86,30.16,10.0,North,15.0,-,N/A,,Overcast,360,2012-12-27 11:50:00
7:50 AM,21.2,17.6,86,30.17,10.0,North,13.8,20.7,N/A,,Overcast,360,2012-12-27 12:50:00
8:50 AM,21.2,15.8,80,30.17,10.0,North,12.7,18.4,N/A,Snow,Light Snow,350,2012-12-27 13:50:00
9:55 AM,21.2,17.6,86,30.17,7.0,North,10.4,-,N/A,Snow,Light Snow,360,2012-12-27 14:55:00
10:55 AM,21.2,17.6,86,30.18,7.0,North,16.1,-,N/A,,Overcast,360,2012-12-27 15:55:00
11:50 AM,23.0,17.6,80,30.17,10.0,North,11.5,-,N/A,,Overcast,360,2012-12-27 16:50:00
12:50 PM,21.2,17.6,86,30.15,10.0,North,15.0,-,N/A,,Overcast,10,2012-12-27 17:50:00
1:50 PM,21.2,17.6,86,30.14,10.0,North,13.8,-,N/A,,Overcast,10,2012-12-27 18:50:00
3:50 PM,21.2,17.6,86,30.14,10.0,North,9.2,-,N/A,,Overcast,360,2012-12-27 20:50:00
4:50 PM,21.2,17.6,86,30.14,10.0,NNW,9.2,-,N/A,,Overcast,340,2012-12-27 21:50:00
5:50 PM,21.2,17.6,86,30.15,10.0,NNW,6.9,-,N/A,,Overcast,330,2012-12-27 22:50:00
6:50 PM,21.2,17.6,86,30.14,10.0,NNW,8.1,-,N/A,,Overcast,340,2012-12-27 23:50:00
8:50 PM,21.2,17.6,86,30.14,10.0,NNW,4.6,-,N/A,,Overcast,330,2012-12-28 01:50:00
9:50 PM,21.2,17.6,86,30.14,10.0,WNW,5.8,-,N/A,,Overcast,290,2012-12-28 02:50:00
10:17 PM,20.8,17.6,87,30.13,10.0,NW,6.9,-,N/A,,Overcast,320,2012-12-28 03:17:00
10:37 PM,20.7,17.4,87,30.11,10.0,NNW,5.8,-,N/A,,Overcast,340,2012-12-28 03:37:00
10:57 PM,20.8,17.6,87,30.11,10.0,NNW,4.6,-,N/A,,Overcast,340,2012-12-28 03:57:00
11:17 PM,20.8,17.6,87,30.11,10.0,Calm,Calm,-,N/A,,Overcast,0,2012-12-28 04:17:00
11:37 PM,20.8,17.6,87,30.11,10.0,Calm,Calm,-,N/A,,Overcast,0,2012-12-28 04:37:00
11:57 PM,20.8,17.6,87,30.11,10.0,Calm,Calm,-,N/A,,Overcast,0,2012-12-28 04:57:00